PST,Max TemperatureF,Mean TemperatureF,Min TemperatureF,Max Dew PointF,MeanDew PointF,Min DewpointF,Max Humidity, Mean Humidity, Min Humidity, Max Sea Level PressureIn, Mean Sea Level PressureIn, Min Sea Level PressureIn, Max VisibilityMiles, Mean VisibilityMiles, Min VisibilityMiles, Max Wind SpeedMPH, Mean Wind SpeedMPH, Max Gust SpeedMPH,PrecipitationIn, CloudCover, Events, WindDirDegrees
2012-11-1,61,50,38,43,40,36,93,73,44,30.11,30.04,29.92,10,10,10,6,3,9,0.03,2,Rain,90
2012-11-2,57,46,34,45,39,32,96,79,51,30.18,30.12,30.08,10,10,7,9,2,10,T,4,Rain,34
2012-11-3,66,52,37,45,42,36,96,79,44,30.32,30.22,30.12,10,8,0,9,1,9,0.00,2,Fog,60
2012-11-4,69,52,35,48,40,34,100,87,45,30.45,30.38,30.32,10,6,0,7,1,7,0.00,2,Fog,36
2012-11-5,68,52,35,48,41,34,100,85,48,30.47,30.38,30.27,10,6,0,6,1,9,0.00,1,Fog,174
2012-11-6,70,52,34,47,39,34,100,86,40,30.27,30.20,30.11,10,5,0,9,2,12,0.00,1,Fog,151
2012-11-7,64,51,37,46,40,36,93,77,48,30.14,30.04,29.88,10,10,10,17,6,20,0.00,1,,349
2012-11-8,46,37,27,36,30,25,92,74,53,29.88,29.82,29.75,10,10,9,20,3,23,0.03,6,Rain,310
2012-11-9,44,32,20,32,27,17,96,82,53,29.99,29.93,29.86,10,9,2,13,1,15,0.04,5,Snow,189
2012-11-10,45,35,25,32,28,23,100,85,49,30.32,30.06,29.90,10,5,0,15,4,17,T,6,Fog,218
2012-11-11,43,32,20,30,25,16,96,73,53,30.45,30.40,30.33,10,10,9,7,1,8,0.00,4,,180
2012-11-12,53,44,34,37,33,30,92,74,44,30.42,30.37,30.30,10,10,10,10,2,13,0.01,6,Rain,36
2012-11-13,55,44,32,43,39,30,100,79,55,30.34,30.25,30.18,10,10,9,8,2,10,0.01,6,Rain,34
2012-11-14,59,45,31,41,35,29,100,76,43,30.29,30.23,30.18,10,9,2,8,2,10,0.00,0,,44
2012-11-15,50,38,25,38,30,23,100,86,66,30.20,30.12,30.03,10,6,0,9,1,10,0.00,2,Fog,50
2012-11-16,57,45,33,38,35,31,96,72,43,30.04,29.98,29.89,10,10,10,25,10,30,0.00,4,,85
2012-11-17,59,45,31,43,36,28,92,74,47,30.00,29.81,29.65,10,10,6,28,8,35,0.10,5,Rain,162
2012-11-18,47,38,28,36,31,26,100,84,58,30.09,30.03,29.99,10,7,0,31,11,39,0.00,5,Fog,82
2012-11-19,55,50,45,40,35,32,62,57,50,30.06,29.98,29.90,10,10,10,41,30,52,T,5,,169
2012-11-20,55,50,45,45,42,38,86,75,59,29.91,29.85,29.79,10,10,6,41,17,52,0.34,6,Rain,179
2012-11-21,51,41,30,40,33,27,92,71,42,30.36,30.13,29.83,10,10,10,21,7,28,0.03,3,Rain,246
2012-11-22,47,35,23,33,28,22,92,80,53,30.47,30.42,30.37,10,10,10,7,1,7,0.00,0,,115
2012-11-23,48,37,25,35,28,23,100,88,60,30.49,30.41,30.37,10,7,0,6,1,7,0.00,2,Fog,155
2012-11-24,54,39,24,40,31,21,100,86,54,30.40,30.29,30.17,10,6,0,8,1,23,0.00,5,Fog,173
2012-11-25,60,46,32,43,38,30,93,78,47,30.16,30.11,30.04,10,10,7,5,1,14,0.00,3,,72
2012-11-26,55,40,25,37,29,23,100,88,50,30.19,30.11,30.07,10,4,0,8,1,9,0.00,1,Fog,292
2012-11-27,57,44,30,35,31,28,92,62,35,30.15,30.07,29.94,10,10,10,40,13,49,0.00,0,,136
2012-11-28,55,49,43,38,36,32,76,59,41,29.93,29.83,29.76,10,10,10,45,24,59,T,4,Rain,174
2012-11-29,51,48,45,45,39,34,93,71,52,29.86,29.73,29.61,10,9,4,44,25,54,0.70,6,Rain,179
2012-11-30,56,51,46,44,40,33,93,70,54,29.75,29.68,29.59,10,10,5,28,12,35,0.16,7,Rain,191